STARLINK-5700, 55607

Orbit data source: Space-Track

STARLINK-5700, 55607 is a payload satellite owned by SpaceX/Seattle (US) in LEO that was launched on Sun, 12 Feb 2023 UTC via an FALCON 9 launch vehicle from the Air Force Eastern Test Range (AFETR). Payload-class satellites include a variety of spacecraft equipped with specific instruments for various scientific and technological missions. These include communications satellites like Starlink; space stations such as the ISS; scientific satellites like the Hubble; Earth observation satellites from companies like Planet Labs, Umbra, and HawkEye 360; GPS; miniature CubeSats for education and research; and military/defense satellites.

Loading next visibility...
Identifier
55607, 2023-020AQ
Orbit
LEO
Country
Flag of USUS
Related business
Manufacturer
SpaceX/Seattle
Mission
Operational Commercial Communications
Bus & Motor
STARLINK, Unknown motor
Mass
305 kg wet, ~290 kg dry
Launch date (UTC)
2023-02-12 (3 years ago)
Launch vehicle
FALCON 9
Launch site
Air Force Eastern Test Range (AFETR)
Object type
Payload
Rocket body
Debris
Shape & HBR
Box + 1 Pan, 10.1 m
Radar Cross Section
13.562 m², Large (>1 m²)

Expand to show TLE details & history
Last TLE update: 15 hours ago

TLE from 15 hours ago
0 STARLINK-5700
1 55607U 23020AQ  25340.53059864 -.00000806  00000-0 -44596-4 0  9992
2 55607  43.0025 138.0471 0001339 268.4153  91.6536 15.02538274155051
Epoch: 2025-12-06T12:44Z
TLE epoch observation values (Epoch: 2025-12-06T12:44:03.722Z)
Latitude
-0.00002°
Longitude
-128.52544°
Altitude
558.878 km
Speed
7.584 km/s
True Right ascension
09h 12m 11s
True Declination
0° 00' 00"
Sunlit
Object was in partial shadow at epoch
Visualization orbit readout
Latitude
Unknown
Longitude
Unknown
Altitude
Unknown
Speed
Unknown
Apparent Right ascension
Unknown
Apparent Declination
Unknown
Sunlit
N/A
Visualization observer readout
Local Sidereal Time
02:09:38
Azimuth
Unknown
Elevation
Unknown
Doppler factor
Unknown
Orbital elements
Apogee altitude
561.925 km
Perigee altitude
560.067 km
Semi-major axis
6,939.133 km
Eccentricity
0.00013
Inclination
43.0025°
RAAN
138.0471°
Arg. of periapsis
268.4153°
True anomaly
91.66894°
Mean anomaly
91.6536°
Eccentric anomaly
91.66127°
Mean motion
3.75479 °/min
Orbital period
95.88 mins
BSTAR
-0.000044596
Loading maneuver chart data...
Computing Atmospheric mass density...
Loading historical data...
Loading historical data...
Loading historical data...
Loading historical data...
Loading historical data...
Loading historical data...
Loading historical data...

Documentation

Showing up to 5 results
|